Regional Weather Roundup
Issued by NWS Kansas City/Pleasant Hill, MO

Home | Current Version | Previous Version | Graphics & Text | Print | Product List | Glossary Off
Versions: 1 2 3 4 5 6 7 8 9 10 11 12 13 14 15 16 17 18 19 20 21 22 23 24 25 26 27 28 29 30 31 32 33 34 35 36 37 38 39 40 41 42 43 44 45 46 47 48 49 50

295
ASUS43 KEAX 250110
RWREAX

WEATHER ROUNDUP FOR EASTERN KANSAS AND NORTHWEST MISSOURI
NATIONAL WEATHER SERVICE KANSAS CITY/PLEASANT HILL MO
800 PM CDT SUN JUL 24 2016

KSZ040-057-103>105-MOZ028-029-037-043-250200-
...KANSAS CITY METROPOLITAN AREA...

CITY           SKY/WX    TMP DP  RH WIND       PRES   REMARKS
K.C. INTL      CLOUDY    82  69  64 N20       29.96S
K.C. DOWNTOWN  CLOUDY    88  79  74 N12       29.93S HX 103
LEES SUMMIT    CLOUDY    87  77  72 N7        29.95S HX  99
OLATHE - IXD   PTCLDY    87  77  72 N12       29.95S HX  99
OLATHE - OJC   CLOUDY    87  76  69 N8        29.94F HX  97
LAWRENCE       CLOUDY    83  73  72 N9G18     29.94S

$$

MOZ001>008-011>017-020>025-030>033-038>040-044>046-053-054-250200-
...NORTHERN AND CENTRAL MISSOURI...

CITY           SKY/WX    TMP DP  RH WIND       PRES   REMARKS
ST. JOSEPH     CLOUDY    80  67  64 N10       29.97S
MOSBY          CLOUDY    84  72  65 N13G24    29.95R
WHITEMAN AFB   PTCLDY    89  80  75 N5        29.92R HX 106
CLINTON        CLEAR     90  81  74 CALM      29.92S HX 108
SEDALIA        CLEAR     91  80  70 CALM      29.94R HX 109
WARSAW         NOT AVBL
CHILLICOTHE      N/A     84  72  67 VRB6      29.97R
KIRKSVILLE     CLOUDY    78  68  71 NE7       29.96F

$$

MOZ041-047>049-056>058-063>065-088>090-097-250200-
...EASTERN AND SOUTHERN MISSOURI...

CITY           SKY/WX    TMP DP  RH WIND       PRES   REMARKS
ST. LOUIS INTL PTCLDY    93  78  61 S12       29.91R HX 108
SPIRIT OF STL  PTCLDY    91  79  67 S5        29.89R HX 107
COLUMBIA       CLEAR     89  79  72 NW5       29.93R HX 104
JEFFERSON CITY CLEAR     91  77  63 NW3       29.91R HX 104
ROLLA          PTCLDY    88  77  69 SW3       29.94R HX 100
OSAGE BEACH    CLEAR     86  82  88 CALM      29.94S HX 104
SPRINGFIELD    CLEAR     93  72  50 SE5       29.95S HX 101
BRANSON        MOCLDY    86  75  70 CALM      29.98S HX  95
JOPLIN         CLEAR     90  78  68 CALM      29.94R HX 104
WEST PLAINS    PTCLDY    87  76  69 E3        30.00S HX  97

$$

IAZ060-094-KSZ022-034>040-054-083-096-NEZ052-066-093-250200-
...KANSAS...SOUTHEAST NEBRASKA AND IOWA...

CITY           SKY/WX    TMP DP  RH WIND       PRES   REMARKS
TOPEKA           N/A     82  69  64 NE13      29.96R
MANHATTAN      CLEAR     82  68  62 NE12      29.96R
EMPORIA        CLEAR     91  73  55 NE12      29.93R HX  99
CHANUTE        PTCLDY    92  77  61 SE5       29.91S HX 105
WICHITA        MOCLDY    96  68  39 SE13      29.89S HX 101
OMAHA          CLOUDY    83  67  58 E6        30.00F
LINCOLN        CLEAR     82  66  58 NE8       30.01S
FALLS CITY     CLOUDY    77  70  79 E7        29.98S
LAMONI         CLOUDY    76  69  79 N7        29.99F
DES MOINES     CLOUDY    81  67  62 NW6       29.98S

$$





USA.gov is the U.S. government's official web portal to all federal, state and local government web resources and services.